CW8796 Weather Reports


time (UTC)temp
C
wind
direction
speed
KPH
gust
KPH
rain 1hr
cm
rain 24hr
cm
rain mn
cm
humidity
%
barometer
mb
20260505101526 6 304 0.0 4.8 0.00 0.18 0.00 89 1011.6
20260505100024 6 232 0.0 1.6 0.00 0.18 0.00 90 1011.6
20260505094526 6 232 0.0 0.0 0.00 0.18 0.00 90 1011.6
20260505093023 6 231 0.0 0.0 0.00 0.18 0.00 89 1011.6
20260505091525 6 232 0.0 0.0 0.00 0.18 0.00 89 1011.6
20260505090024 6 232 1.6 3.2 0.00 0.18 0.00 89 1011.8
20260505084527 6 231 0.0 4.8 0.00 0.18 0.00 89 1012.0
20260505083024 6 227 0.0 1.6 0.00 0.18 0.00 89 1012.2
20260505081547 6 227 1.6 6.4 0.00 0.18 0.00 89 1012.4
20260505080023 6 233 1.6 4.8 0.00 0.18 0.00 90 1012.3
20260505074522 6 233 1.6 6.4 0.00 0.18 0.00 89 1012.5
20260505073025 6 240 1.6 4.8 0.00 0.18 0.00 90 1012.5
20260505071543 6 249 1.6 6.4 0.00 0.18 0.00 90 1012.5
20260505070024 6 232 1.6 4.8 0.03 0.18 0.00 90 1012.6
20260505064522 6 238 0.0 4.8 0.03 0.18 0.18 90 1012.5
20260505063024 7 244 3.2 6.4 0.03 0.18 0.18 90 1012.6
20260505061520 7 234 0.0 4.8 0.03 0.18 0.18 88 1012.6
20260505060022 7 234 0.0 4.8 0.00 0.15 0.15 85 1012.7
20260505054541 7 234 1.6 3.2 0.00 0.15 0.15 83 1012.9
20260505053017 7 232 0.0 3.2 0.00 0.15 0.15 82 1012.8
20260505051518 7 232 0.0 1.6 0.00 0.15 0.15 82 1012.8
20260505041538 7 198 1.6 6.4 0.00 0.15 0.15 82 1012.3
20260505040035 7 234 1.6 3.2 0.00 0.15 0.15 82 1012.1
20260505034553 7 234 1.6 4.8 0.00 0.15 0.15 81 1012.1
20260505033034 7 222 0.0 3.2 0.00 0.15 0.15 83 1011.9
20260505031533 7 249 0.0 1.6 0.00 0.15 0.15 82 1011.6
20260505030034 7 212 0.0 1.6 0.00 0.15 0.15 83 1011.5
20260505024531 8 211 1.6 3.2 0.00 0.15 0.15 80 1011.4
20260505023033 9 63 1.6 4.8 0.00 0.15 0.15 76 1011.7
20260505021533 10 35 1.6 8.0 0.03 0.15 0.15 72 1011.7
20260505020015 9 238 3.2 14.5 0.10 0.15 0.15 71 1011.6
20260505014535 9 292 6.4 17.7 0.13 0.15 0.15 73 1011.5
20260505013018 8 225 3.2 9.7 0.15 0.15 0.15 81 1011.1
20260505011534 8 244 6.4 16.1 0.13 0.13 0.13 76 1011.6
20260505010016 11 237 14.5 32.2 0.05 0.05 0.05 65 1011.5
20260505004534 13 355 3.2 12.9 0.03 0.03 0.03 57 1010.4
20260505003054 15 144 4.8 19.3 0.00 0.00 0.00 47 1009.9
20260505001554 15 90 3.2 9.7 0.00 0.00 0.00 42 1009.4
20260505000031 16 188 3.2 14.5 0.00 0.00 0.00 42 1009.3
20260504234552 16 81 4.8 12.9 0.00 0.00 0.00 41 1008.7
20260504233029 16 63 3.2 12.9 0.00 0.00 0.00 41 1008.4
20260504231547 16 54 8.0 16.1 0.00 0.00 0.00 43 1008.4
20260504230028 15 148 1.6 3.2 0.00 0.00 0.00 46 1008.4
20260504224526 15 111 0.0 4.8 0.00 0.00 0.00 46 1008.3
20260504223027 15 217 3.2 33.8 0.00 0.00 0.00 47 1008.9
20260504221546 14 321 0.0 3.2 0.00 0.00 0.00 60 1009.1
20260504220028 15 109 3.2 8.0 0.00 0.00 0.00 46 1009.1
20260504214526 16 109 4.8 16.1 0.00 0.00 0.00 41 1008.8
20260504213028 17 64 9.7 32.2 0.00 0.00 0.00 35 1008.3
20260504211526 19 71 6.4 17.7 0.00 0.00 0.00 31 1008.0
20260504210024 20 88 11.3 16.1 0.00 0.00 0.00 29 1007.9
20260504204525 20 76 4.8 11.3 0.00 0.00 0.00 30 1008.1
20260504203024 20 17 6.4 12.9 0.00 0.00 0.00 28 1008.3
20260504201525 20 53 12.9 24.1 0.00 0.00 0.00 29 1008.7
20260504200024 20 248 4.8 14.5 0.00 0.00 0.00 27 1008.5
20260504194525 20 250 9.7 22.5 0.00 0.00 0.00 31 1008.7
20260504193024 20 325 1.6 4.8 0.00 0.00 0.00 27 1008.9
20260504191526 20 287 3.2 8.0 0.00 0.00 0.00 27 1008.9
20260504190023 20 70 3.2 11.3 0.00 0.00 0.00 27 1009.1
20260504184546 20 55 4.8 17.7 0.00 0.00 0.00 25 1009.4
20260504183023 20 280 6.4 19.3 0.00 0.00 0.00 25 1009.8
20260504181520 20 220 3.2 9.7 0.00 0.00 0.00 28 1009.9
20260504180040 19 98 3.2 11.3 0.00 0.00 0.00 27 1010.2
20260504174517 20 247 1.6 14.5 0.00 0.00 0.00 28 1010.3
20260504173019 18 241 4.8 17.7 0.00 0.00 0.00 30 1010.8
20260504171517 18 109 9.7 20.9 0.00 0.00 0.00 32 1011.0